Regional Weather Roundup
Issued by NWS

Home | Current Version | Previous Version | Text Only | Print | Product List | Glossary Off
Versions: 1 2 3 4 5 6 7 8 9 10 11 12 13 14 15 16 17 18 19 20 21 22 23 24 25 26 27 28 29 30 31 32 33 34 35 36 37 38 39 40 41 42 43 44 45 46 47 48 49 50

000
ASUS43 KLMK 200702
RWRKY
KENTUCKY REGIONAL WEATHER ROUNDUP
NATIONAL WEATHER SERVICE LOUISVILLE KY
200 AM EST MON NOV 20 2017

NOTE "FAIR" INDICATES FEW OR NO CLOUDS BELOW 12,000 FEET
WITH NO SIGNIFICANT WEATHER AND/OR OBSTRUCTIONS TO VISIBILITY.

KYZ001>023-026-027-061>063-070>075-200800-
WESTERN AND SOUTH CENTRAL KENTUCKY

CITY           SKY/WX    TMP DP  RH WIND       PRES   REMARKS
PADUCAH        CLOUDY    27  21  78 CALM      30.24S
HENDERSON      CLEAR     26  23  88 S3        30.23F
OWENSBORO      CLEAR     28  24  85 CALM      30.24S
HOPKINSVILLE   CLOUDY    29  22  76 CALM      30.24F
BOWLING GREEN  CLEAR     28  23  81 SW3       30.26R
GLASGOW        NOT AVBL
$$

KYZ024-025-028>034-038-045-046-053-200800-
NORTH CENTRAL KENTUCKY

CITY           SKY/WX    TMP DP  RH WIND       PRES   REMARKS
LOUISVILLE/SDF PTCLDY    30  22  72 SW7       30.22S WCI  23
LOUISVILLE/LOU CLEAR     29  24  82 CALM      30.22F
FORT KNOX      CLEAR     24  22  89 CALM      30.20F
$$

KYZ035>037-039>044-047>052-055>060-089>105-200800-
NORTHEAST KENTUCKY

CITY           SKY/WX    TMP DP  RH WIND       PRES   REMARKS
LEXINGTON      CLEAR     27  21  78 SW5       30.21R WCI  22
COVINGTON      PTCLDY    28  23  81 W5        30.17S WCI  23
FRANKFORT      CLEAR     25  20  81 CALM      30.20S
$$

KYZ054-064>069-076>088-106>120-200800-
SOUTHEAST KENTUCKY

CITY           SKY/WX    TMP DP  RH WIND       PRES   REMARKS
JACKSON        CLEAR     29  24  82 SW3       30.19S
LONDON         CLEAR     26  24  92 CALM      30.21S
SOMERSET       CLEAR     27  27 100 S3        30.25S
MIDDLESBORO    CLEAR     28  27  99 CALM      30.23S
MONTICELLO     SUNNY     21  18  88 W9        30.26R FOG     WCI  11
$$





USA.gov is the U.S. government's official web portal to all federal, state and local government web resources and services.